Starlink 30888

operational
NORAD ID: 58370 Int'l Des: 2023-177 Owner: SPXS Country: US Constellation: starlink
LEOCIRCULAR

Über Starlink 30888

Beschreibung wird geladen...

Live-Position

3D-Globus wird geladen...

Nächste Überflüge

Höhenverlauf

Altitude vs Time

uPlot chart will show altitude changes over time

Zweizeiliger Elementsatz

1 58370U 23177V 25304.81317823 -.00000237 00000-0 -24560-5 0 9996
2 58370 43.0043 332.3483 0001388 265.5858 94.4826 15.02534453108839
Epoch: 31. Okt. 2025 • Age: 13 hours

Aktueller Status

Höhe 564.0 km
Geschwindigkeit 7.58 km/s
Subsatellitenpunkt -23.05°S, 139.76°E
Startdatum 18. Nov. 2023
Alter 1.9 years
Typ internet

Technische Details

Klassifizierung Payload
Masse 730.00 kg
Trockenmasse 700.00 kg
Gesamtmasse 730.00 kg
Länge 0.30 m
Durchmesser 4.10 m
Spannweite 29.00 m
Form Box + pan
Hersteller SPXS
Bus-Typ Starlink V2M
Phasenstatus In Orbit
Besitzer/Staat SPXS/US

Große Konstellationen

Loading constellations...